When you browse on this site, cookies collect data to enhance your experience and personalize the content and advertising you see.
Visit our Privacy Policy to learn more. By continuing to use the site, you agree to this use of cookies and data.
  • In United Kingdom
  • List of Countries
  • For 7 days
  • Water Temperature
  • Satellite Maps
  • Weather Map
  • Weather Widgets
  • user-avatar
    Login

    Hourly Weather Odienne

    Today, 24 April, Wednesday

    Time Temperature Precipitation Wind Pressure Humidity
    00:00 +30°C° 0 mm 2 mps 721 mmHg 57%
    01:00 +30°C° 0 mm 2 mps 721 mmHg 61%
    02:00 +29°C° 0 mm 2 mps 721 mmHg 65%
    03:00 +29°C° 0 mm 2 mps 721 mmHg 68%
    04:00 +28°C° 0 mm 1 mps 721 mmHg 71%
    05:00 +27°C° 0 mm 1 mps 721 mmHg 74%
    06:00 +29°C° 0 mm 1 mps 722 mmHg 69%
    07:00 +31°C° 0 mm 2 mps 722 mmHg 63%
    08:00 +32°C° 0 mm 2 mps 723 mmHg 58%
    09:00 +36°C° 0 mm 2 mps 723 mmHg 50%
    10:00 +37°C° 0 mm 1 mps 723 mmHg 42%
    11:00 +41°C° 0 mm 1 mps 723 mmHg 34%
    12:00 +40°C° 0 mm 1 mps 722 mmHg 34%
    13:00 +40°C° 0 mm 1 mps 722 mmHg 34%
    14:00 +39°C° 0 mm 1 mps 721 mmHg 35%
    15:00 +39°C° 0 mm 1 mps 721 mmHg 36%
    16:00 +37°C° 0 mm 1 mps 721 mmHg 38%
    17:00 +36°C° 0 mm 1 mps 721 mmHg 39%
    18:00 +35°C° 0 mm 1 mps 721 mmHg 42%
    19:00 +34°C° 0 mm 1 mps 721 mmHg 46%
    20:00 +33°C° 0 mm 1 mps 722 mmHg 49%
    21:00 +32°C° 0 mm 2 mps 722 mmHg 53%
    22:00 +31°C° 0 mm 3 mps 723 mmHg 56%
    23:00 +32°C° 0 mm 4 mps 723 mmHg 60%

    Tomorrow, 25 April, Thursday

    Time Temperature Precipitation Wind Pressure Humidity
    00:00 +30°C° 0.1 mm 4 mps 723 mmHg 65%
    01:00 +29°C° 0.1 mm 3 mps 723 mmHg 70%
    02:00 +28°C° 0.1 mm 3 mps 723 mmHg 75%
    03:00 +28°C° 0 mm 2 mps 723 mmHg 77%
    04:00 +27°C° 0 mm 1 mps 723 mmHg 80%
    05:00 +27°C° 0 mm 1 mps 723 mmHg 82%
    06:00 +28°C° 0 mm 1 mps 723 mmHg 76%
    07:00 +30°C° 0 mm 1 mps 723 mmHg 69%
    08:00 +31°C° 0 mm 2 mps 724 mmHg 63%
    09:00 +35°C° 0 mm 2 mps 724 mmHg 53%
    10:00 +37°C° 0 mm 1 mps 724 mmHg 44%
    11:00 +40°C° 0 mm 1 mps 724 mmHg 34%
    12:00 +40°C° 0 mm 2 mps 723 mmHg 34%
    13:00 +40°C° 0 mm 2 mps 722 mmHg 34%
    14:00 +40°C° 0 mm 3 mps 721 mmHg 33%
    15:00 +39°C° 0 mm 3 mps 721 mmHg 36%
    16:00 +38°C° 0 mm 2 mps 721 mmHg 38%
    17:00 +37°C° 0 mm 2 mps 721 mmHg 41%
    18:00 +36°C° 0 mm 2 mps 721 mmHg 45%
    19:00 +35°C° 0 mm 3 mps 722 mmHg 49%
    20:00 +34°C° 0 mm 3 mps 723 mmHg 53%
    21:00 +32°C° 0.5 mm 2 mps 723 mmHg 58%
    22:00 +31°C° 0.5 mm 1 mps 723 mmHg 63%
    23:00 +28°C° 0.5 mm 0 mps 723 mmHg 68%

    Day after tomorrow, 26 April, Friday

    Time Temperature Precipitation Wind Pressure Humidity
    00:00 +30°C° 0.3 mm 1 mps 723 mmHg 71%
    01:00 +29°C° 0.3 mm 1 mps 722 mmHg 73%
    02:00 +29°C° 0.3 mm 1 mps 722 mmHg 75%
    03:00 +28°C° 0.1 mm 1 mps 722 mmHg 77%
    04:00 +28°C° 0.1 mm 1 mps 722 mmHg 79%
    05:00 +27°C° 0.1 mm 1 mps 722 mmHg 81%
    06:00 +29°C° 0 mm 1 mps 723 mmHg 74%
    07:00 +31°C° 0 mm 1 mps 723 mmHg 67%
    08:00 +32°C° 0 mm 2 mps 724 mmHg 59%
    09:00 +35°C° 0 mm 1 mps 724 mmHg 50%
    10:00 +39°C° 0 mm 1 mps 724 mmHg 41%
    11:00 +42°C° 0 mm 1 mps 724 mmHg 32%
    12:00 +41°C° 0 mm 1 mps 723 mmHg 33%
    13:00 +40°C° 0 mm 1 mps 722 mmHg 33%
    14:00 +39°C° 0 mm 2 mps 721 mmHg 34%
    15:00 +39°C° 0 mm 2 mps 720 mmHg 36%
    16:00 +37°C° 0 mm 1 mps 720 mmHg 39%
    17:00 +36°C° 0 mm 1 mps 720 mmHg 41%
    18:00 +35°C° 0.1 mm 1 mps 721 mmHg 45%
    19:00 +34°C° 0.1 mm 1 mps 721 mmHg 49%
    20:00 +33°C° 0.1 mm 1 mps 722 mmHg 53%
    21:00 +31°C° 2.2 mm 1 mps 722 mmHg 62%
    22:00 +30°C° 2.2 mm 1 mps 722 mmHg 71%
    23:00 +29°C° 2.2 mm 2 mps 722 mmHg 81%

    27 April, Saturday

    Time Temperature Precipitation Wind Pressure Humidity
    00:00 +29°C° 0.2 mm 2 mps 722 mmHg 81%
    01:00 +29°C° 0.2 mm 1 mps 721 mmHg 81%
    02:00 +28°C° 0.2 mm 1 mps 721 mmHg 81%
    03:00 +28°C° 1.5 mm 1 mps 721 mmHg 82%
    04:00 +28°C° 1.5 mm 2 mps 721 mmHg 83%
    05:00 +27°C° 1.5 mm 2 mps 721 mmHg 84%
    06:00 +29°C° 0 mm 2 mps 722 mmHg 78%
    07:00 +30°C° 0 mm 2 mps 722 mmHg 72%
    08:00 +31°C° 0 mm 2 mps 723 mmHg 66%
    09:00 +35°C° 0 mm 2 mps 723 mmHg 57%
    10:00 +37°C° 0 mm 2 mps 723 mmHg 47%
    11:00 +40°C° 0 mm 2 mps 723 mmHg 38%
    12:00 +39°C° 0 mm 1 mps 722 mmHg 38%
    13:00 +39°C° 0 mm 1 mps 721 mmHg 38%
    14:00 +39°C° 0 mm 1 mps 720 mmHg 38%
    15:00 +37°C° 0 mm 1 mps 720 mmHg 40%
    16:00 +35°C° 0 mm 0 mps 720 mmHg 41%
    17:00 +34°C° 0 mm 0 mps 720 mmHg 43%
    18:00 +33°C° 0.1 mm 0 mps 720 mmHg 46%
    19:00 +34°C° 0.1 mm 1 mps 721 mmHg 48%
    20:00 +33°C° 0.1 mm 1 mps 722 mmHg 50%
    21:00 +32°C° 0.1 mm 1 mps 721 mmHg 54%
    22:00 +31°C° 0.1 mm 1 mps 721 mmHg 58%
    23:00 +31°C° 0.1 mm 2 mps 721 mmHg 62%

    28 April, Sunday

    Time Temperature Precipitation Wind Pressure Humidity
    00:00 +30°C° 0 mm 2 mps 721 mmHg 65%
    01:00 +29°C° 0 mm 2 mps 720 mmHg 68%
    02:00 +29°C° 0 mm 2 mps 719 mmHg 71%
    03:00 +28°C° 0 mm 1 mps 720 mmHg 74%
    04:00 +28°C° 0 mm 1 mps 720 mmHg 76%
    05:00 +27°C° 0 mm 1 mps 721 mmHg 79%
    06:00 +29°C° 0 mm 1 mps 721 mmHg 73%
    07:00 +31°C° 0 mm 1 mps 722 mmHg 67%
    08:00 +32°C° 0 mm 2 mps 723 mmHg 61%
    09:00 +35°C° 0 mm 2 mps 723 mmHg 53%
    10:00 +37°C° 0 mm 2 mps 722 mmHg 46%
    11:00 +40°C° 0 mm 2 mps 722 mmHg 38%
    12:00 +41°C° 0 mm 2 mps 721 mmHg 34%
    13:00 +42°C° 0 mm 1 mps 720 mmHg 29%
    14:00 +43°C° 0 mm 1 mps 720 mmHg 25%
    15:00 +42°C° 0 mm 1 mps 719 mmHg 27%
    16:00 +41°C° 0 mm 1 mps 719 mmHg 29%
    17:00 +39°C° 0 mm 1 mps 719 mmHg 31%
    18:00 +38°C° 0 mm 2 mps 720 mmHg 39%
    19:00 +36°C° 0 mm 3 mps 720 mmHg 46%
    20:00 +35°C° 0 mm 3 mps 721 mmHg 54%
    21:00 +34°C° 0 mm 3 mps 721 mmHg 58%
    22:00 +33°C° 0 mm 3 mps 721 mmHg 61%
    23:00 +31°C° 0 mm 3 mps 721 mmHg 65%

    29 April, Monday

    Time Temperature Precipitation Wind Pressure Humidity
    00:00 +30°C° 0 mm 3 mps 721 mmHg 66%
    01:00 +30°C° 0 mm 3 mps 720 mmHg 68%
    02:00 +29°C° 0 mm 3 mps 720 mmHg 70%
    03:00 +29°C° 0 mm 3 mps 720 mmHg 73%
    04:00 +28°C° 0 mm 2 mps 721 mmHg 76%
    05:00 +28°C° 0 mm 2 mps 721 mmHg 79%
    06:00 +29°C° 0 mm 2 mps 722 mmHg 74%
    07:00 +30°C° 0 mm 2 mps 722 mmHg 69%
    08:00 +31°C° 0 mm 3 mps 723 mmHg 64%
    09:00 +34°C° 0 mm 3 mps 723 mmHg 57%
    10:00 +37°C° 0 mm 3 mps 723 mmHg 50%
    11:00 +39°C° 0 mm 3 mps 722 mmHg 43%
    12:00 +39°C° 0 mm 3 mps 722 mmHg 40%
    13:00 +40°C° 0 mm 3 mps 721 mmHg 37%
    14:00 +42°C° 0 mm 3 mps 720 mmHg 34%
    15:00 +40°C° 0 mm 3 mps 720 mmHg 38%
    16:00 +38°C° 0 mm 3 mps 720 mmHg 42%
    17:00 +37°C° 0 mm 3 mps 720 mmHg 46%
    18:00 +35°C° 0.3 mm 3 mps 721 mmHg 53%
    19:00 +34°C° 0.3 mm 2 mps 721 mmHg 59%
    20:00 +31°C° 0.3 mm 2 mps 722 mmHg 66%
    21:00 +31°C° 0.1 mm 2 mps 722 mmHg 68%
    22:00 +30°C° 0.1 mm 2 mps 722 mmHg 70%
    23:00 +29°C° 0.1 mm 2 mps 722 mmHg 72%
    Show more